EN

Hourly Weather Ballycastle

Today, 16 January, Saturday

Time Temperature Precipitation Wind Pressure Humidity
00:00 +5°C° 0 mm 14 mps 753 mmHg 92%
01:00 +5°C° 1.2 mm 12 mps 753 mmHg 93%
02:00 +7°C° 1.2 mm 10 mps 752 mmHg 93%
03:00 +7°C° 1.2 mm 8 mps 751 mmHg 94%
04:00 +7°C° 0.1 mm 8 mps 751 mmHg 92%
05:00 +6°C° 0.1 mm 8 mps 751 mmHg 90%
06:00 +5°C° 0.1 mm 9 mps 751 mmHg 88%
07:00 +6°C° 0.1 mm 10 mps 752 mmHg 87%
08:00 +6°C° 0.1 mm 11 mps 752 mmHg 86%
09:00 +5°C° 0.1 mm 12 mps 753 mmHg 85%
10:00 +5°C° 0.1 mm 12 mps 753 mmHg 82%
11:00 +5°C° 0.1 mm 12 mps 754 mmHg 79%
12:00 +5°C° 0.1 mm 13 mps 755 mmHg 76%
13:00 +4°C° 0 mm 12 mps 756 mmHg 76%
14:00 +4°C° 0 mm 12 mps 756 mmHg 77%
15:00 +4°C° 0 mm 11 mps 756 mmHg 77%
16:00 +3°C° 0.1 mm 11 mps 757 mmHg 78%
17:00 +3°C° 0.1 mm 10 mps 757 mmHg 79%
18:00 +2°C° 0.1 mm 10 mps 757 mmHg 80%
19:00 +2°C° 0.2 mm 10 mps 757 mmHg 81%
20:00 +2°C° 0.2 mm 11 mps 758 mmHg 83%
21:00 +2°C° 0.2 mm 11 mps 758 mmHg 85%
22:00 +2°C° 0.3 mm 11 mps 758 mmHg 83%
23:00 +2°C° 0.3 mm 10 mps 758 mmHg 82%

Tomorrow, 17 January, Sunday

Time Temperature Precipitation Wind Pressure Humidity
00:00 +2°C° 0.3 mm 10 mps 759 mmHg 81%
01:00 +2°C° 0.2 mm 10 mps 759 mmHg 80%
02:00 +2°C° 0.2 mm 10 mps 759 mmHg 80%
03:00 +2°C° 0.2 mm 10 mps 759 mmHg 80%
04:00 +2°C° 0.1 mm 10 mps 760 mmHg 81%
05:00 +2°C° 0.1 mm 9 mps 760 mmHg 82%
06:00 +2°C° 0.1 mm 9 mps 760 mmHg 83%
07:00 +2°C° 0.1 mm 8 mps 761 mmHg 84%
08:00 +2°C° 0.1 mm 8 mps 761 mmHg 84%
09:00 +2°C° 0.1 mm 8 mps 761 mmHg 85%
10:00 +2°C° 0.1 mm 8 mps 761 mmHg 87%
11:00 +3°C° 0.1 mm 9 mps 762 mmHg 88%
12:00 +3°C° 0.1 mm 9 mps 762 mmHg 90%
13:00 +3°C° 0.7 mm 9 mps 761 mmHg 90%
14:00 +3°C° 0.7 mm 10 mps 761 mmHg 91%
15:00 +3°C° 0.7 mm 10 mps 761 mmHg 91%
16:00 +3°C° 0.2 mm 10 mps 761 mmHg 90%
17:00 +3°C° 0.2 mm 10 mps 761 mmHg 89%
18:00 +3°C° 0.2 mm 10 mps 760 mmHg 88%
19:00 +3°C° 0 mm 10 mps 760 mmHg 87%
20:00 +3°C° 0 mm 10 mps 760 mmHg 87%
21:00 +3°C° 0 mm 10 mps 760 mmHg 86%
22:00 +3°C° 0.4 mm 10 mps 760 mmHg 86%
23:00 +3°C° 0.4 mm 10 mps 760 mmHg 87%

Day after tomorrow, 18 January, Monday

Time Temperature Precipitation Wind Pressure Humidity
00:00 +2°C° 0.4 mm 10 mps 760 mmHg 87%
01:00 +3°C° 0.9 mm 10 mps 759 mmHg 87%
02:00 +3°C° 0.9 mm 9 mps 759 mmHg 88%
03:00 +3°C° 0.9 mm 9 mps 759 mmHg 88%
04:00 +3°C° 0.4 mm 9 mps 759 mmHg 88%
05:00 +4°C° 0.4 mm 8 mps 758 mmHg 88%
06:00 +4°C° 0.4 mm 8 mps 758 mmHg 88%
07:00 +4°C° 0.2 mm 7 mps 758 mmHg 88%
08:00 +4°C° 0.2 mm 7 mps 758 mmHg 89%
09:00 +4°C° 0.2 mm 6 mps 758 mmHg 89%
10:00 +4°C° 0.1 mm 6 mps 757 mmHg 89%
11:00 +4°C° 0.1 mm 6 mps 757 mmHg 89%
12:00 +4°C° 0.1 mm 7 mps 757 mmHg 89%
13:00 +4°C° 0.1 mm 6 mps 756 mmHg 88%
14:00 +4°C° 0.1 mm 6 mps 756 mmHg 88%
15:00 +3°C° 0.1 mm 6 mps 755 mmHg 87%
16:00 +3°C° 0 mm 6 mps 754 mmHg 88%
17:00 +3°C° 0 mm 5 mps 753 mmHg 89%
18:00 +2°C° 0 mm 5 mps 753 mmHg 90%
19:00 +3°C° 0.1 mm 4 mps 752 mmHg 91%
20:00 +3°C° 0.1 mm 3 mps 751 mmHg 93%
21:00 +3°C° 0.1 mm 3 mps 750 mmHg 94%
22:00 +4°C° 0.1 mm 2 mps 749 mmHg 94%
23:00 +4°C° 0.1 mm 2 mps 749 mmHg 94%

19 January, Tuesday

Time Temperature Precipitation Wind Pressure Humidity
00:00 +6°C° 0.1 mm 1 mps 748 mmHg 95%
01:00 +6°C° 0.1 mm 1 mps 747 mmHg 95%
02:00 +6°C° 0.1 mm 1 mps 746 mmHg 95%
03:00 +5°C° 0.1 mm 0 mps 745 mmHg 95%
04:00 +6°C° 0.4 mm 1 mps 744 mmHg 96%
05:00 +6°C° 0.4 mm 1 mps 744 mmHg 96%
06:00 +6°C° 0.4 mm 1 mps 743 mmHg 96%
07:00 +6°C° 0.8 mm 1 mps 743 mmHg 97%
08:00 +6°C° 0.8 mm 1 mps 742 mmHg 97%
09:00 +5°C° 0.8 mm 2 mps 742 mmHg 97%
10:00 +5°C° 1.1 mm 2 mps 741 mmHg 97%
11:00 +5°C° 1.1 mm 2 mps 740 mmHg 97%
12:00 +5°C° 1.1 mm 2 mps 739 mmHg 97%
13:00 +5°C° 1.3 mm 2 mps 739 mmHg 97%
14:00 +4°C° 1.3 mm 3 mps 738 mmHg 96%
15:00 +4°C° 1.3 mm 4 mps 737 mmHg 96%
16:00 +4°C° 0.8 mm 4 mps 736 mmHg 96%
17:00 +4°C° 0.8 mm 4 mps 736 mmHg 96%
18:00 +3°C° 0.8 mm 5 mps 735 mmHg 96%
19:00 +3°C° 0.5 mm 5 mps 735 mmHg 95%
20:00 +3°C° 0.5 mm 5 mps 735 mmHg 95%
21:00 +2°C° 0.5 mm 5 mps 734 mmHg 95%
22:00 +2°C° 0.2 mm 5 mps 734 mmHg 92%
23:00 +2°C° 0.2 mm 6 mps 734 mmHg 89%

20 January, Wednesday

Time Temperature Precipitation Wind Pressure Humidity
00:00 +2°C° 0.2 mm 6 mps 734 mmHg 87%
01:00 +2°C° 0 mm 5 mps 734 mmHg 86%
02:00 +1°C° 0 mm 5 mps 734 mmHg 86%
03:00 +1°C° 0 mm 5 mps 734 mmHg 85%
04:00 +1°C° 0.1 mm 5 mps 734 mmHg 86%
05:00 +1°C° 0.1 mm 5 mps 733 mmHg 86%
06:00 0°C° 0.1 mm 4 mps 733 mmHg 87%
07:00 0°C° 0.1 mm 4 mps 733 mmHg 87%
08:00 +1°C° 0.1 mm 4 mps 733 mmHg 86%
09:00 +1°C° 0.1 mm 4 mps 733 mmHg 86%
10:00 +1°C° 0 mm 4 mps 733 mmHg 84%
11:00 +3°C° 0 mm 4 mps 733 mmHg 82%
12:00 +4°C° 0 mm 3 mps 733 mmHg 81%
13:00 +4°C° 0 mm 4 mps 732 mmHg 81%
14:00 +3°C° 0 mm 5 mps 732 mmHg 81%
15:00 +3°C° 0 mm 5 mps 732 mmHg 81%
16:00 +2°C° 0 mm 6 mps 733 mmHg 81%
17:00 +1°C° 0 mm 6 mps 733 mmHg 81%
18:00 0°C° 0 mm 7 mps 733 mmHg 81%
19:00 0°C° 0.2 mm 7 mps 734 mmHg 83%
20:00 0°C° 0.2 mm 7 mps 735 mmHg 86%
21:00 0°C° 0.2 mm 7 mps 735 mmHg 88%
22:00 0°C° 0.1 mm 7 mps 736 mmHg 85%
23:00 +1°C° 0.1 mm 6 mps 736 mmHg 82%

21 January, Thursday

Time Temperature Precipitation Wind Pressure Humidity
00:00 +2°C° 0.1 mm 6 mps 736 mmHg 80%
01:00 +2°C° 0.1 mm 7 mps 737 mmHg 81%
02:00 0°C° 0.1 mm 7 mps 737 mmHg 83%
03:00 0°C° 0.1 mm 7 mps 737 mmHg 84%
04:00 0°C° 0.1 mm 8 mps 738 mmHg 82%
05:00 0°C° 0.1 mm 8 mps 738 mmHg 80%
06:00 0°C° 0.1 mm 9 mps 738 mmHg 78%
07:00 0°C° 0.2 mm 9 mps 738 mmHg 79%
08:00 0°C° 0.2 mm 9 mps 739 mmHg 80%
09:00 0°C° 0.2 mm 9 mps 739 mmHg 81%
10:00 +1°C° 0.2 mm 9 mps 739 mmHg 79%
11:00 +1°C° 0.2 mm 9 mps 740 mmHg 78%
12:00 +2°C° 0.2 mm 8 mps 740 mmHg 76%
13:00 +2°C° 0.2 mm 8 mps 740 mmHg 77%
14:00 +3°C° 0.2 mm 7 mps 740 mmHg 77%
15:00 +3°C° 0.2 mm 6 mps 740 mmHg 78%
16:00 +2°C° 0.1 mm 6 mps 741 mmHg 79%
17:00 +1°C° 0.1 mm 6 mps 741 mmHg 80%
18:00 +1°C° 0.1 mm 5 mps 741 mmHg 82%
19:00 0°C° 0.1 mm 5 mps 742 mmHg 83%
20:00 0°C° 0.1 mm 5 mps 742 mmHg 83%
21:00 0°C° 0.1 mm 4 mps 743 mmHg 84%
22:00 0°C° 0.2 mm 4 mps 743 mmHg 84%
23:00 0°C° 0.2 mm 4 mps 743 mmHg 84%
Show more

We Need Your Consent

Meteoprog and our Service Providers may store and access personal data such as cookies, device identifiers or other similar technologies on your device and process such data to personalise content and ads, as well as provide social media features and to analyse the traffic.

  • Store and/or access information on your device

    Cookies, device identifiers or other information can be stored or accessed on your device for the purposes indicated above.

  • Personalised ads and content, ad and content measurement, audience insights, and products development

    Ads and content can be personalised based on a profile. More data can be added to better personalise ads and content. Ad and content performance can be measured. Insights about the audience who saw the ads and content can be derived. Such data can be used to develop or improve user’s experience, systems and software.

By clicking ‘I Agree’ you will allow the use of indicated cookies, device identifiers, web beacons or other similar technologies. Your settings can be changed in the browser on your device.

For certain purposes, legitimate interests may be relied on, rather than consent. You can read more about this in our Privacy and Cookie Policy.